Regional Weather Roundup
Issued by NWS Jackson, KY

Home | Current Version | Previous Version | Text Only | Print | Product List | Glossary On
Versions: 1 2 3 4 5 6 7 8 9 10 11 12 13 14 15 16 17 18 19 20 21 22 23 24 25 26 27
000
ASUS43 KJKL 170410
RWRJKL

EAST KENTUCKY HOURLY WEATHER ROUNDUP
NATIONAL WEATHER SERVICE JACKSON KY
1100 PM EST MON JAN 16 2017

NOTE: "FAIR" INDICATES FEW OR NO CLOUDS BELOW 12,000 FEET WITH
NO SIGNIFICANT WEATHER AND/OR OBSTRUCTIONS TO VISIBILITY.

* THESE REPORTS ARE NOT UNDER NWS QUALITY CONTROL AND MAY NOT
  REPORT WEATHER SUCH AS PRECIPITATION AND FOG.

KYZ079-080-083-085-087-088-110-112-115-119-120-170500
...EASTERN KENTUCKY...

CITY           SKY/WX    TMP DP  RH WIND       PRES   REMARKS
JACKSON        CLOUDY    59  50  72 VRB3      30.13F
LONDON         CLOUDY    59  50  72 S7        30.13F
SOMERSET*      CLOUDY    59  52  77 S5        30.13S
MONTICELLO*    CLOUDY    61  54  77 SE9       30.12F
WILLIAMSBURG*  CLOUDY    57  55  94 SE5       30.13F
MIDDLESBORO*   CLOUDY    54  52  95 S3        30.17F
HARLAN APT*    CLOUDY    57  48  72 CALM      30.17F
PIKE CO APT*   MOCLDY    59  50  72 S5        30.14F
MOREHEAD APT*  CLOUDY    55  52  88 SE5       30.12F
ASHLAND*       CLOUDY    48  46  93 SE3       30.11F
$$

KYZ035-036-041-042-044-050-067-078-099-170500
...CENTRAL KENTUCKY...

CITY           SKY/WX    TMP DP  RH WIND       PRES   REMARKS
MT STERLING*   CLOUDY    57  52  82 S7        30.11F
FLEMING/MASON* CLOUDY    55  52  92 SE9       30.09F
DANVILLE*      CLOUDY    57  52  82 S9        30.09F
LEXINGTON      CLOUDY    59  52  77 S14       30.07F
FRANKFORT      CLOUDY    58  52  80 SE9       30.04F
LOUISVILLE     LGT RAIN  57  53  86 CALM      30.04R
LEBANON*         N/A     61  52  72 S13G18    30.06F
GLASGOW*       CLOUDY    62  51  69 S9        30.05F
BOWLING GREEN  CLOUDY    65  52  62 S21G26    30.04F
$$

KYZ091>093-OHZ055-061-077-WVZ005-015-034-035-042-170500
...SOUTHERN OHIO/WEST VIRGINIA...

CITY           SKY/WX    TMP DP  RH WIND       PRES   REMARKS
COVINGTON      CLOUDY    54  52  93 SE9       30.04F
COLUMBUS       LGT RAIN  46  46 100 E7        30.11F FOG
DAYTON         FOG       48  47  96 SE8       30.06S VSB 1/4
WILMINGTON     CLOUDY    48  47  96 SE9       30.07F FOG
HUNTINGTON     CLOUDY    50  48  93 E5        30.13F FOG
CHARLESTON     CLOUDY    50  48  93 CALM      30.15F
PINEVILLE*     CLOUDY    52  48  87 MISG      30.23F
BECKLEY        CLOUDY    50  46  86 SE8       30.20F
BLUEFIELD      CLOUDY    49  45  86 CALM      30.23F
LOGAN CO APT*  MOCLDY    57  50  77 CALM      30.15F
$$

VAZ002-007-008-TNZ017-027-036-066-071-170500
...SOUTHWEST VIRGINIA/EAST TENNESSEE...

CITY           SKY/WX    TMP DP  RH WIND       PRES   REMARKS
WISE*          CLOUDY    55  45  67 S12       30.21S
JONESVILLE*    CLOUDY    50  50 100 CALM      30.20F
ABINGDON*      PTCLDY    53  49  87 E7        30.21F
BRISTOL        PTCLDY    54  47  77 CALM      30.20F
MORRISTOWN*    MOCLDY    54  54 100 CALM      30.17F
SEVIERVILLE*   MOCLDY    48  48 100 CALM      30.17F
KNOXVILLE      CLOUDY    55  52  89 CALM      30.16F
LAFOLLETTE*    MOCLDY    54  54 100 NE3       30.19F
OAK RIDGE      CLOUDY    54  51  90 CALM      30.18
CROSSVILLE     CLOUDY    58  52  80 S8G17     30.16F
NASHVILLE      CLOUDY    61  55  81 S14       30.07F
$$

...KEY TO REMARKS...
VSB - VISIBILITY IN MILES
WCI - WIND CHILL INDEX
HX  - HEAT INDEX

$$




USA.gov is the U.S. government's official web portal to all federal, state and local government web resources and services.